TimeEET,TemperatureF,Dew PointF,Humidity,Sea Level PressureIn,VisibilityMPH,Wind Direction,Wind SpeedMPH,Gust SpeedMPH,PrecipitationIn,Events,Conditions,WindDirDegrees,DateUTC
12:20 AM,51.8,48.2,88,29.71,3.7,SW,5.8,-,N/A,Rain,Light Rain Showers,220,2012-12-09 22:20:00
12:50 AM,50.0,48.2,94,29.68,6.2,South,3.5,-,N/A,,Mostly Cloudy,170,2012-12-09 22:50:00
1:20 AM,51.8,46.4,82,29.68,6.2,SSE,4.6,-,N/A,,Mostly Cloudy,160,2012-12-09 23:20:00
1:50 AM,51.8,48.2,88,29.68,6.2,South,5.8,-,N/A,,Mostly Cloudy,180,2012-12-09 23:50:00
2:00 AM,51,48,85,29.71,6,South,5.8,,,,Partly Cloudy,180,2012-12-10 00:00:00
2:20 AM,51.8,46.4,82,29.71,6.2,SSW,6.9,-,N/A,,Mostly Cloudy,200,2012-12-10 00:20:00
2:50 AM,51.8,50.0,94,29.71,6.2,South,10.4,-,N/A,Rain,Light Rain Showers,180,2012-12-10 00:50:00
3:20 AM,51.8,46.4,82,29.68,6.2,SSE,16.1,-,N/A,,Mostly Cloudy,160,2012-12-10 01:20:00
3:50 AM,51.8,46.4,82,29.68,6.2,SSE,12.7,-,N/A,Rain,Light Rain Showers,160,2012-12-10 01:50:00
4:20 AM,51.8,48.2,88,29.65,6.2,South,10.4,-,N/A,Rain,Light Rain Showers,170,2012-12-10 02:20:00
4:50 AM,51.8,46.4,82,29.65,6.2,South,9.2,-,N/A,Rain,Light Rain Showers,180,2012-12-10 02:50:00
5:20 AM,51.8,44.6,76,29.65,3.7,South,8.1,-,N/A,Rain,Light Rain Showers,190,2012-12-10 03:20:00
5:50 AM,51.8,44.6,76,29.68,4.3,SSW,10.4,-,N/A,Rain,Light Rain Showers,200,2012-12-10 03:50:00
6:20 AM,51.8,46.4,82,29.68,3.7,SSW,8.1,-,N/A,Rain,Light Rain Showers,200,2012-12-10 04:20:00
6:50 AM,51.8,46.4,82,29.65,3.7,SW,9.2,-,N/A,Rain,Light Rain Showers,230,2012-12-10 04:50:00
7:20 AM,51.8,48.2,88,29.65,5.0,SW,5.8,-,N/A,Rain,Light Rain Showers,230,2012-12-10 05:20:00
7:50 AM,50.0,48.2,94,29.68,6.2,West,5.8,-,N/A,Rain,Light Rain Showers,280,2012-12-10 05:50:00
8:00 AM,51,49,89,29.69,6,West,5.8,,,Rain,Light Rain Showers,280,2012-12-10 06:00:00
8:20 AM,50.0,48.2,94,29.68,3.7,North,9.2,-,N/A,Rain,Light Rain Showers,350,2012-12-10 06:20:00
8:50 AM,50.0,48.2,94,29.68,3.7,North,8.1,-,N/A,Rain,Light Rain Showers,10,2012-12-10 06:50:00
9:20 AM,50.0,46.4,87,29.68,3.7,Variable,5.8,-,N/A,Rain,Light Rain Showers,0,2012-12-10 07:20:00
9:50 AM,50.0,46.4,87,29.68,3.7,North,8.1,-,N/A,Rain,Light Rain Showers,360,2012-12-10 07:50:00
10:20 AM,48.2,46.4,93,29.68,3.7,NNW,12.7,-,N/A,Rain,Light Rain Showers,340,2012-12-10 08:20:00
10:50 AM,48.2,48.2,100,29.68,6.2,North,9.2,-,N/A,Rain,Light Rain Showers,350,2012-12-10 08:50:00
11:20 AM,48.2,46.4,93,29.65,6.2,North,15.0,-,N/A,Rain,Light Rain Showers,360,2012-12-10 09:20:00
11:50 AM,46.4,44.6,93,29.65,6.2,North,18.4,-,N/A,Rain,Light Rain Showers,350,2012-12-10 09:50:00
12:20 PM,44.6,42.8,93,29.68,6.2,North,16.1,-,N/A,Rain,Light Rain Showers,350,2012-12-10 10:20:00
12:50 PM,44.6,44.6,100,29.68,3.7,North,16.1,-,N/A,Rain,Light Rain Showers,350,2012-12-10 10:50:00
1:20 PM,44.6,44.6,100,29.68,3.7,North,20.7,-,N/A,Rain,Light Rain Showers,350,2012-12-10 11:20:00
1:50 PM,44.6,42.8,93,29.65,6.2,North,17.3,-,N/A,Rain,Light Rain Showers,360,2012-12-10 11:50:00
2:00 PM,45,43,91,29.68,6,North,17.3,,,Rain,Light Rain Showers,0,2012-12-10 12:00:00
2:20 PM,44.6,42.8,93,29.68,6.2,North,19.6,-,N/A,Rain,Light Rain Showers,350,2012-12-10 12:20:00
2:50 PM,44.6,42.8,93,29.68,6.2,North,20.7,-,N/A,,Mostly Cloudy,360,2012-12-10 12:50:00
3:20 PM,44.6,42.8,93,29.68,6.2,North,19.6,-,N/A,Rain,Light Rain Showers,350,2012-12-10 13:20:00
3:50 PM,44.6,42.8,93,29.68,6.2,North,19.6,-,N/A,Rain,Light Rain Showers,350,2012-12-10 13:50:00
4:20 PM,44.6,42.8,93,29.68,6.2,North,19.6,-,N/A,Rain,Light Rain Showers,360,2012-12-10 14:20:00
4:50 PM,44.6,41.0,87,29.68,6.2,North,19.6,-,N/A,Rain,Light Rain Showers,360,2012-12-10 14:50:00
5:20 PM,42.8,41.0,93,29.68,6.2,North,21.9,-,N/A,Rain,Light Rain Showers,360,2012-12-10 15:20:00
5:50 PM,42.8,41.0,93,29.71,6.2,North,19.6,-,N/A,Rain,Light Rain Showers,350,2012-12-10 15:50:00
6:20 PM,42.8,41.0,93,29.71,6.2,North,20.7,-,N/A,Rain,Light Rain Showers,350,2012-12-10 16:20:00
6:50 PM,42.8,39.2,87,29.74,3.7,North,21.9,-,N/A,Rain,Light Rain Showers,350,2012-12-10 16:50:00
7:20 PM,42.8,39.2,87,29.74,3.7,North,20.7,-,N/A,Rain,Light Rain Showers,350,2012-12-10 17:20:00
7:50 PM,42.8,37.4,81,29.74,5.0,North,18.4,-,N/A,Rain,Light Rain Showers,360,2012-12-10 17:50:00
8:00 PM,43,38,76,29.76,5,North,18.4,,,Rain,Light Rain Showers,0,2012-12-10 18:00:00
8:20 PM,42.8,37.4,81,29.77,6.2,North,17.3,-,N/A,Rain,Light Rain Showers,360,2012-12-10 18:20:00
8:50 PM,42.8,37.4,81,29.77,6.2,North,16.1,-,N/A,,Mostly Cloudy,350,2012-12-10 18:50:00
9:20 PM,42.8,37.4,81,29.80,6.2,North,16.1,-,N/A,,Mostly Cloudy,360,2012-12-10 19:20:00
9:50 PM,42.8,37.4,81,29.80,6.2,North,13.8,-,N/A,,Mostly Cloudy,360,2012-12-10 19:50:00
10:20 PM,42.8,37.4,81,29.80,6.2,North,11.5,-,N/A,,Mostly Cloudy,350,2012-12-10 20:20:00
10:50 PM,42.8,37.4,81,29.80,6.2,North,9.2,-,N/A,,Mostly Cloudy,350,2012-12-10 20:50:00
11:20 PM,42.8,37.4,81,29.83,6.2,North,5.8,-,N/A,,Mostly Cloudy,350,2012-12-10 21:20:00
11:50 PM,42.8,37.4,81,29.83,6.2,NNW,6.9,-,N/A,,Mostly Cloudy,330,2012-12-10 21:50:00